Tracking 18785 objects as of 19-August-2017
HD Live streaming from Space Station
objects crossing your sky now

GREB

Track GREB now!
10-day predictions
GREB is classified as:


NORAD ID: 731
Int'l Code: 1964-001E
Perigee: 904.4 km
Apogee: 926.7 km
Inclination: 69.9 °
Period: 103.2 minutes
Semi major axis: 7286 km
RCS: 0.526 m2 (medium)
Launch date: January 11, 1964
Source: United States (US)
Launch site: AIR FORCE WESTERN TEST RANGE (AFWTR)
Your satellite tracking list
Your tracking list is empty





NASA's NSSDC Master Catalog

Two Line Element Set (TLE):
1   731U 64001E   17230.90512809 -.00000044 +00000-0 +69342-5 0  9997
2   731 069.9081 350.5423 0015291 219.3055 280.0448 13.95798711727611
Source of the keplerian elements: AFSPC